CCM10TY LFKB-LFPO

Flight info

Callsign CCM10TY
Flight time 1h 24m
Altitude 34000
Route AKUTI UM616 PIGOS DCT BARSO DCT OKTET DCT GIPNO DCT BULOL DCT IDAVO DCT ARDOL
Aircraft A320/M-SDE3FGHIRWY/LB1

Departure

Time 2026-04-15 13:37
Airport Bastia-Poretta International airport (LFKB)

Arrival

Time 2026-04-15 15:01
Airport Paris-Orly Airport (LFPO)
Time Latitude Longitude Altitude Speed Heading
2026-04-15 13:13 42.54676 9.48228 32 ft 0 kts 282°
2026-04-15 13:31 42.54672 9.48253 31 ft 4 kts 282°
2026-04-15 13:31 42.54667 9.48288 31 ft 4 kts 273°
2026-04-15 13:31 42.54671 9.48321 31 ft 4 kts 230°
2026-04-15 13:31 42.54691 9.48336 28 ft 4 kts 168°
2026-04-15 13:32 42.54702 9.48332 31 ft 2 kts 160°
2026-04-15 13:32 42.54704 9.48331 31 ft 0 kts 160°
2026-04-15 13:34 42.54702 9.48332 31 ft 1 kts 160°
2026-04-15 13:34 42.54665 9.48350 32 ft 11 kts 160°
2026-04-15 13:34 42.54565 9.48394 32 ft 20 kts 162°
2026-04-15 13:34 42.54429 9.48413 33 ft 19 kts 186°
2026-04-15 13:35 42.54320 9.48451 34 ft 15 kts 163°
2026-04-15 13:35 42.54224 9.48489 33 ft 13 kts 163°
2026-04-15 13:35 42.54141 9.48568 35 ft 20 kts 120°
2026-04-15 13:35 42.54168 9.48766 35 ft 24 kts 48°
2026-04-15 13:36 42.54318 9.48768 33 ft 24 kts 344°
2026-04-15 13:36 42.54582 9.48658 30 ft 73 kts 343°
2026-04-15 13:36 42.55277 9.48372 32 ft 133 kts 343°
2026-04-15 13:36 42.56275 9.47963 297 ft 159 kts 343°
2026-04-15 13:37 42.57379 9.47519 777 ft 172 kts 342°
2026-04-15 13:37 42.58553 9.47040 1414 ft 182 kts 343°
2026-04-15 13:37 42.59834 9.46496 1825 ft 203 kts 344°
2026-04-15 13:37 42.61246 9.45897 2298 ft 223 kts 345°
2026-04-15 13:38 42.62789 9.45234 2840 ft 244 kts 341°
2026-04-15 13:38 42.64308 9.44063 3557 ft 257 kts 327°
2026-04-15 13:38 42.65709 9.42501 4450 ft 264 kts 320°
2026-04-15 13:38 42.67057 9.40761 5361 ft 269 kts 319°
2026-04-15 13:39 42.68408 9.38977 6279 ft 272 kts 319°
2026-04-15 13:39 42.69787 9.37190 6994 ft 275 kts 319°
2026-04-15 13:39 42.71202 9.35408 7761 ft 280 kts 320°
2026-04-15 13:39 42.72711 9.33715 8564 ft 282 kts 330°
2026-04-15 13:40 42.74410 9.32345 9421 ft 286 kts 333°
2026-04-15 13:40 42.76141 9.30983 10221 ft 290 kts 333°
2026-04-15 13:40 42.77920 9.29590 10742 ft 305 kts 332°
2026-04-15 13:40 42.79828 9.28099 11028 ft 326 kts 332°
2026-04-15 13:41 42.81820 9.26536 11655 ft 334 kts 332°
2026-04-15 13:41 42.83845 9.24941 12404 ft 338 kts 332°
2026-04-15 13:41 42.85888 9.23326 13165 ft 342 kts 332°
2026-04-15 13:41 42.87926 9.21713 13896 ft 345 kts 332°
2026-04-15 13:42 42.90012 9.20060 14570 ft 349 kts 332°
2026-04-15 13:42 42.92122 9.18390 15234 ft 352 kts 332°
2026-04-15 13:42 42.94245 9.16711 15891 ft 355 kts 332°
2026-04-15 13:42 42.96393 9.15012 16548 ft 358 kts 332°
2026-04-15 13:43 42.98559 9.13298 17205 ft 361 kts 332°
2026-04-15 13:43 43.00743 9.11566 17856 ft 364 kts 332°
2026-04-15 13:43 43.02944 9.09816 18477 ft 368 kts 332°
2026-04-15 13:43 43.05163 9.08050 19030 ft 371 kts 332°
2026-04-15 13:44 43.07401 9.06267 19580 ft 374 kts 332°
2026-04-15 13:44 43.09662 9.04466 20127 ft 377 kts 332°
2026-04-15 13:44 43.11940 9.02652 20683 ft 381 kts 332°
2026-04-15 13:44 43.14236 9.00824 21223 ft 384 kts 331°
2026-04-15 13:45 43.16557 8.98974 21767 ft 387 kts 331°
2026-04-15 13:45 43.18888 8.97087 22301 ft 391 kts 328°
2026-04-15 13:45 43.21032 8.94749 22832 ft 397 kts 317°
2026-04-15 13:47 43.28970 8.69905 25984 ft 419 kts 293°
2026-04-15 13:47 43.29939 8.66127 26390 ft 421 kts 294°
2026-04-15 13:47 43.30913 8.62330 26785 ft 423 kts 294°
2026-04-15 13:48 43.31895 8.58512 27176 ft 425 kts 295°
2026-04-15 13:48 43.32882 8.54670 27564 ft 427 kts 295°
2026-04-15 13:48 43.33872 8.50815 27944 ft 429 kts 295°
2026-04-15 13:48 43.34865 8.46940 28318 ft 431 kts 296°
2026-04-15 13:49 43.35521 8.44364 28564 ft 433 kts 296°
2026-04-15 13:49 43.36517 8.40446 28925 ft 434 kts 296°
2026-04-15 13:49 43.37514 8.36522 29284 ft 436 kts 296°
2026-04-15 13:49 43.38513 8.32578 29632 ft 438 kts 297°
2026-04-15 13:50 43.39515 8.28616 29988 ft 440 kts 297°
2026-04-15 13:50 43.40520 8.24636 30280 ft 441 kts 297°
2026-04-15 13:50 43.41528 8.20641 30542 ft 443 kts 297°
2026-04-15 13:50 43.42541 8.16632 30810 ft 444 kts 297°
2026-04-15 13:51 43.43557 8.12605 31065 ft 446 kts 297°
2026-04-15 13:51 43.44573 8.08569 31316 ft 447 kts 297°
2026-04-15 13:51 43.45589 8.04518 31589 ft 448 kts 297°
2026-04-15 13:51 43.46603 8.00465 31938 ft 447 kts 297°
2026-04-15 13:52 43.47611 7.96425 32280 ft 446 kts 297°
2026-04-15 13:52 43.48615 7.92393 32618 ft 445 kts 297°
2026-04-15 13:52 43.49620 7.88361 32944 ft 445 kts 297°
2026-04-15 13:52 43.50621 7.84333 33274 ft 444 kts 297°
2026-04-15 13:53 43.51619 7.80314 33603 ft 443 kts 297°
2026-04-15 13:53 43.52615 7.76306 33945 ft 443 kts 297°
2026-04-15 13:53 43.53613 7.72291 34071 ft 441 kts 297°
2026-04-15 13:53 43.54575 7.68380 34093 ft 432 kts 296°
2026-04-15 13:54 43.56483 7.60588 34097 ft 427 kts 296°
2026-04-15 13:54 43.58389 7.52839 34102 ft 426 kts 296°
2026-04-15 13:55 43.60289 7.45097 34107 ft 426 kts 296°
2026-04-15 13:55 43.62922 7.38008 34105 ft 407 kts 315°
2026-04-15 13:56 43.66945 7.32791 34096 ft 392 kts 332°
2026-04-15 13:56 43.71500 7.28655 34091 ft 392 kts 332°
2026-04-15 13:57 43.76049 7.24490 34085 ft 392 kts 332°
2026-04-15 13:57 43.80585 7.20310 34087 ft 392 kts 331°
2026-04-15 13:58 43.85133 7.16116 34078 ft 392 kts 332°
2026-04-15 13:58 43.89654 7.11956 34078 ft 393 kts 331°
2026-04-15 13:59 43.94219 7.07741 34089 ft 395 kts 331°
2026-04-15 13:59 43.98780 7.03529 34086 ft 394 kts 331°
2026-04-15 14:00 44.03341 6.99296 34088 ft 395 kts 330°
2026-04-15 14:00 44.07909 6.95055 34086 ft 395 kts 330°
2026-04-15 14:01 44.14739 6.88697 34081 ft 394 kts 330°
2026-04-15 14:02 44.19311 6.84433 34075 ft 395 kts 330°
2026-04-15 14:02 44.23870 6.80148 34078 ft 395 kts 330°
2026-04-15 14:03 44.28437 6.75860 34074 ft 396 kts 330°
2026-04-15 14:03 44.33005 6.71582 34070 ft 395 kts 329°
2026-04-15 14:04 44.37580 6.67288 34073 ft 396 kts 329°
2026-04-15 14:04 44.42115 6.63005 34065 ft 396 kts 329°
2026-04-15 14:05 44.46682 6.58672 34074 ft 397 kts 329°
2026-04-15 14:05 44.51259 6.54341 34081 ft 397 kts 329°
2026-04-15 14:06 44.55838 6.50004 34085 ft 397 kts 329°
2026-04-15 14:06 44.60409 6.45664 34081 ft 397 kts 329°
2026-04-15 14:07 44.64987 6.41314 34079 ft 397 kts 329°
2026-04-15 14:07 44.69561 6.36959 34077 ft 397 kts 328°
2026-04-15 14:08 44.74130 6.32588 34086 ft 398 kts 328°
2026-04-15 14:08 44.78710 6.28207 34090 ft 398 kts 328°
2026-04-15 14:09 44.83299 6.23806 34109 ft 399 kts 328°
2026-04-15 14:09 44.87875 6.19406 34105 ft 399 kts 328°
2026-04-15 14:10 44.92459 6.14991 34117 ft 399 kts 328°
2026-04-15 14:10 44.97053 6.10569 34113 ft 399 kts 327°
2026-04-15 14:11 45.01633 6.06147 34124 ft 399 kts 327°
2026-04-15 14:11 45.06180 6.01732 34131 ft 399 kts 327°
2026-04-15 14:12 45.10759 5.97278 34136 ft 399 kts 327°
2026-04-15 14:12 45.15342 5.92826 34145 ft 399 kts 327°
2026-04-15 14:13 45.19923 5.88374 34152 ft 399 kts 327°
2026-04-15 14:13 45.24499 5.83906 34149 ft 399 kts 327°
2026-04-15 14:14 45.29075 5.79424 34155 ft 400 kts 326°
2026-04-15 14:14 45.33651 5.74938 34159 ft 400 kts 326°
2026-04-15 14:15 45.38227 5.70451 34181 ft 400 kts 326°
2026-04-15 14:15 45.42936 5.66262 34179 ft 399 kts 332°
2026-04-15 14:16 45.47838 5.62536 34175 ft 400 kts 332°
2026-04-15 14:16 45.52768 5.58860 34174 ft 400 kts 332°
2026-04-15 14:17 45.57657 5.55174 34176 ft 400 kts 332°
2026-04-15 14:17 45.62236 5.51693 34171 ft 401 kts 332°
2026-04-15 14:18 45.67177 5.47925 34177 ft 401 kts 332°
2026-04-15 14:18 45.72100 5.44165 34175 ft 401 kts 332°
2026-04-15 14:19 45.77018 5.40404 34173 ft 402 kts 331°
2026-04-15 14:19 45.81955 5.36615 34175 ft 402 kts 331°
2026-04-15 14:20 45.86889 5.32837 34179 ft 402 kts 331°
2026-04-15 14:20 45.91827 5.29045 34189 ft 403 kts 331°
2026-04-15 14:21 45.96775 5.25235 34186 ft 403 kts 331°
2026-04-15 14:21 46.01714 5.21414 34187 ft 403 kts 330°
2026-04-15 14:22 46.06661 5.17588 34181 ft 403 kts 330°
2026-04-15 14:22 46.11604 5.13754 34181 ft 404 kts 330°
2026-04-15 14:23 46.16551 5.09902 34185 ft 404 kts 330°
2026-04-15 14:23 46.21468 5.06069 34181 ft 405 kts 330°
2026-04-15 14:24 46.26425 5.02207 34194 ft 405 kts 330°
2026-04-15 14:24 46.31392 4.98325 34184 ft 406 kts 330°
2026-04-15 14:25 46.36356 4.94427 34190 ft 406 kts 330°
2026-04-15 14:25 46.41333 4.90518 34184 ft 407 kts 329°
2026-04-15 14:26 46.46308 4.86607 34183 ft 407 kts 329°
2026-04-15 14:26 46.51297 4.82678 34187 ft 408 kts 329°
2026-04-15 14:27 46.56291 4.78729 34193 ft 409 kts 329°
2026-04-15 14:27 46.61292 4.74764 34189 ft 409 kts 329°
2026-04-15 14:28 46.66294 4.70798 34196 ft 410 kts 329°
2026-04-15 14:28 46.71303 4.66812 34198 ft 410 kts 328°
2026-04-15 14:29 46.76336 4.62860 34187 ft 411 kts 330°
2026-04-15 14:29 46.81552 4.59376 34196 ft 413 kts 334°
2026-04-15 14:30 46.86814 4.56132 34193 ft 414 kts 334°
2026-04-15 14:30 46.92103 4.52800 34192 ft 414 kts 333°
2026-04-15 14:31 46.97361 4.49386 34200 ft 414 kts 332°
2026-04-15 14:31 47.02616 4.45948 34187 ft 414 kts 332°
2026-04-15 14:32 47.07876 4.42500 34188 ft 414 kts 332°
2026-04-15 14:32 47.13126 4.39063 33827 ft 411 kts 332°
2026-04-15 14:32 47.15730 4.37361 33558 ft 409 kts 332°
2026-04-15 14:33 47.18320 4.35659 33286 ft 406 kts 332°
2026-04-15 14:33 47.20886 4.33973 32836 ft 402 kts 332°
2026-04-15 14:33 47.23432 4.32299 32341 ft 399 kts 332°
2026-04-15 14:33 47.25105 4.31197 32028 ft 397 kts 332°
2026-04-15 14:34 47.28462 4.28983 31393 ft 394 kts 332°
2026-04-15 14:34 47.30956 4.27337 30923 ft 391 kts 333°
2026-04-15 14:34 47.33404 4.25724 30474 ft 389 kts 333°
2026-04-15 14:34 47.35903 4.24078 29968 ft 387 kts 333°
2026-04-15 14:35 47.38313 4.22484 29537 ft 383 kts 333°
2026-04-15 14:35 47.40741 4.20874 29094 ft 380 kts 333°
2026-04-15 14:35 47.43141 4.19280 28674 ft 376 kts 332°
2026-04-15 14:35 47.45515 4.17702 28262 ft 373 kts 333°
2026-04-15 14:36 47.47881 4.16130 27870 ft 374 kts 333°
2026-04-15 14:36 47.50265 4.14545 27481 ft 377 kts 333°
2026-04-15 14:36 47.52654 4.12958 27096 ft 376 kts 333°
2026-04-15 14:36 47.55035 4.11375 26717 ft 374 kts 333°
2026-04-15 14:37 47.57401 4.09800 26337 ft 372 kts 333°
2026-04-15 14:37 47.59757 4.08230 25957 ft 371 kts 333°
2026-04-15 14:37 47.62102 4.06664 25582 ft 368 kts 332°
2026-04-15 14:37 47.64430 4.05104 25204 ft 366 kts 332°
2026-04-15 14:38 47.66744 4.03550 24841 ft 364 kts 332°
2026-04-15 14:38 47.69046 4.02003 24457 ft 362 kts 332°
2026-04-15 14:38 47.71339 4.00463 24081 ft 361 kts 332°
2026-04-15 14:38 47.73617 3.98932 23701 ft 359 kts 333°
2026-04-15 14:39 47.75882 3.97410 23307 ft 356 kts 333°
2026-04-15 14:39 47.78077 3.95738 22944 ft 352 kts 324°
2026-04-15 14:39 47.79974 3.93501 22584 ft 346 kts 312°
2026-04-15 14:39 47.81498 3.90782 22235 ft 341 kts 301°
2026-04-15 14:40 47.82802 3.87843 21887 ft 339 kts 301°
2026-04-15 14:40 47.84081 3.84971 21539 ft 337 kts 301°
2026-04-15 14:40 47.85375 3.82070 21196 ft 335 kts 301°
2026-04-15 14:40 47.86662 3.79188 20857 ft 333 kts 301°
2026-04-15 14:41 47.87942 3.76325 20520 ft 331 kts 301°
2026-04-15 14:41 47.89214 3.73474 20183 ft 329 kts 301°
2026-04-15 14:41 47.90474 3.70637 19849 ft 327 kts 301°
2026-04-15 14:41 47.91725 3.67812 19513 ft 326 kts 301°
2026-04-15 14:42 47.92969 3.64998 19175 ft 324 kts 301°
2026-04-15 14:42 47.94204 3.62203 18852 ft 322 kts 301°
2026-04-15 14:42 47.95434 3.59422 18525 ft 321 kts 301°
2026-04-15 14:42 47.96702 3.56698 18150 ft 320 kts 307°
2026-04-15 14:43 47.98232 3.54273 17758 ft 320 kts 311°
2026-04-15 14:43 47.99790 3.51906 17365 ft 319 kts 311°
2026-04-15 14:43 48.01339 3.49552 16979 ft 318 kts 311°
2026-04-15 14:43 48.02886 3.47199 16588 ft 316 kts 311°
2026-04-15 14:44 48.03904 3.45648 16333 ft 316 kts 311°
2026-04-15 14:44 48.05437 3.43305 15949 ft 315 kts 311°
2026-04-15 14:44 48.06966 3.40963 15558 ft 315 kts 311°
2026-04-15 14:44 48.08492 3.38622 15173 ft 314 kts 311°
2026-04-15 14:45 48.10511 3.35526 14664 ft 314 kts 311°
2026-04-15 14:45 48.12036 3.33187 14305 ft 313 kts 311°
2026-04-15 14:45 48.13062 3.31618 14068 ft 312 kts 311°
2026-04-15 14:45 48.14578 3.29297 13734 ft 310 kts 311°
2026-04-15 14:46 48.16085 3.26984 13323 ft 309 kts 311°
2026-04-15 14:46 48.17581 3.24685 12904 ft 308 kts 311°
2026-04-15 14:46 48.19066 3.22400 12651 ft 303 kts 311°
2026-04-15 14:46 48.20526 3.20152 12320 ft 300 kts 311°
2026-04-15 14:47 48.21981 3.17915 11954 ft 299 kts 311°
2026-04-15 14:47 48.23424 3.15692 11567 ft 298 kts 311°
2026-04-15 14:47 48.24857 3.13478 11263 ft 294 kts 311°
2026-04-15 14:47 48.26286 3.11274 10907 ft 294 kts 311°
2026-04-15 14:48 48.27704 3.09087 10587 ft 291 kts 311°
2026-04-15 14:48 48.29126 3.06947 10276 ft 289 kts 316°
2026-04-15 14:48 48.30782 3.05244 9970 ft 290 kts 329°
2026-04-15 14:48 48.32553 3.03813 9660 ft 287 kts 329°
2026-04-15 14:49 48.34301 3.02394 9363 ft 285 kts 329°
2026-04-15 14:49 48.36022 3.00994 9080 ft 283 kts 328°
2026-04-15 14:49 48.37774 2.99567 8792 ft 282 kts 328°
2026-04-15 14:49 48.39489 2.98167 8508 ft 280 kts 328°
2026-04-15 14:50 48.41194 2.96772 8220 ft 278 kts 328°
2026-04-15 14:50 48.42870 2.95398 7927 ft 276 kts 328°
2026-04-15 14:50 48.44552 2.94019 7655 ft 274 kts 328°
2026-04-15 14:50 48.46246 2.92628 7374 ft 273 kts 328°
2026-04-15 14:51 48.47881 2.91283 7101 ft 271 kts 328°
2026-04-15 14:51 48.49536 2.89924 6824 ft 269 kts 328°
2026-04-15 14:51 48.51175 2.88575 6543 ft 268 kts 328°
2026-04-15 14:51 48.52804 2.87233 6259 ft 266 kts 328°
2026-04-15 14:52 48.54419 2.85904 6015 ft 261 kts 328°
2026-04-15 14:52 48.55976 2.84626 5885 ft 248 kts 328°
2026-04-15 14:52 48.57460 2.83407 5677 ft 239 kts 328°
2026-04-15 14:52 48.58916 2.82209 5334 ft 237 kts 328°
2026-04-15 14:53 48.60363 2.81014 4991 ft 237 kts 327°
2026-04-15 14:53 48.61806 2.79819 4643 ft 236 kts 328°
2026-04-15 14:53 48.63247 2.78622 4335 ft 236 kts 327°
2026-04-15 14:53 48.64681 2.77435 4090 ft 236 kts 328°
2026-04-15 14:54 48.66121 2.76244 3843 ft 236 kts 328°
2026-04-15 14:54 48.67561 2.75053 3694 ft 235 kts 328°
2026-04-15 14:54 48.69003 2.73862 3613 ft 237 kts 328°
2026-04-15 14:54 48.70448 2.72666 3511 ft 237 kts 328°
2026-04-15 14:55 48.71892 2.71464 3414 ft 237 kts 328°
2026-04-15 14:55 48.73339 2.70262 3297 ft 237 kts 328°
2026-04-15 14:55 48.74761 2.69082 3188 ft 228 kts 327°
2026-04-15 14:55 48.76100 2.67929 3082 ft 216 kts 320°
2026-04-15 14:56 48.76981 2.66259 3003 ft 196 kts 286°
2026-04-15 14:56 48.77128 2.64330 3040 ft 180 kts 259°
2026-04-15 14:56 48.76824 2.62508 3013 ft 176 kts 253°
2026-04-15 14:56 48.76497 2.60734 3009 ft 174 kts 252°
2026-04-15 14:57 48.76180 2.58998 2878 ft 166 kts 252°
2026-04-15 14:57 48.75887 2.57385 2775 ft 149 kts 252°
2026-04-15 14:57 48.75623 2.55929 2588 ft 140 kts 252°
2026-04-15 14:57 48.75359 2.54537 2346 ft 136 kts 252°
2026-04-15 14:58 48.75098 2.53189 2018 ft 133 kts 252°
2026-04-15 14:58 48.74851 2.51848 1880 ft 131 kts 252°
2026-04-15 14:58 48.74628 2.50507 1797 ft 132 kts 252°
2026-04-15 14:58 48.74404 2.49171 1572 ft 131 kts 251°
2026-04-15 14:59 48.74173 2.47854 1472 ft 131 kts 249°
2026-04-15 14:59 48.73892 2.46524 1299 ft 131 kts 249°
2026-04-15 14:59 48.73655 2.45193 1081 ft 129 kts 252°
2026-04-15 14:59 48.73411 2.43862 901 ft 131 kts 250°
2026-04-15 15:00 48.73163 2.42530 758 ft 131 kts 253°
2026-04-15 15:00 48.72933 2.41221 534 ft 128 kts 251°
2026-04-15 15:00 48.72689 2.39901 358 ft 131 kts 251°
2026-04-15 15:00 48.72453 2.38663 298 ft 106 kts 254°
2026-04-15 15:01 48.72299 2.37843 299 ft 56 kts 254°
2026-04-15 15:01 48.72212 2.37358 294 ft 40 kts 253°
2026-04-15 15:01 48.72170 2.37008 292 ft 32 kts 278°
2026-04-15 15:01 48.72183 2.36707 291 ft 27 kts 271°
2026-04-15 15:02 48.72204 2.36494 290 ft 15 kts 302°
2026-04-15 15:02 48.72269 2.36356 294 ft 16 kts 314°
2026-04-15 15:02 48.72358 2.36269 291 ft 15 kts 341°
2026-04-15 15:02 48.72451 2.36228 294 ft 13 kts 344°
2026-04-15 15:03 48.72518 2.36266 294 ft 11 kts 63°
2026-04-15 15:03 48.72551 2.36447 294 ft 25 kts 74°
2026-04-15 15:03 48.72612 2.36751 294 ft 32 kts 72°
2026-04-15 15:03 48.72677 2.37073 298 ft 32 kts 74°
2026-04-15 15:04 48.72734 2.37395 297 ft 28 kts 73°
2026-04-15 15:04 48.72789 2.37651 296 ft 23 kts 72°
2026-04-15 15:04 48.72883 2.37796 299 ft 18 kts 20°
2026-04-15 15:04 48.72941 2.37768 298 ft 8 kts 292°
2026-04-15 15:05 48.72960 2.37692 297 ft 7 kts 289°
2026-04-15 15:05 48.72974 2.37629 297 ft 0 kts 289°